Wind_Speed
27 27 25 24 24 24 22 21 21 22 20 18 17 16 15 14 12 12 12 12 12 13 14 13 11 11 10 9 8 9 10 11 11 11 13 14 15 16 17 17 16 16 14 14
29 28 26 27 26 25 23 22 22 23 21 19 18 17 15 13 13 13 14 14 14 15 14 14 13 13 12 11 11 11 12 13 13 13 14 14 15 16 16 17 17 17 16 15
29 29 29 28 26 25 24 23 23 23 21 19 18 17 16 14 13 13 14 14 15 15 15 15 14 14 13 13 13 14 14 13 14 14 15 16 15 16 16 17 17 18 17 16
31 31 29 28 26 25 24 24 24 23 20 20 18 16 16 14 14 14 15 15 16 16 16 15 15 15 14 14 15 15 14 13 14 15 16 16 15 16 18 18 18 18 17 17
30 30 29 28 27 26 26 25 24 22 21 20 18 16 16 15 14 14 14 15 16 16 16 16 16 15 15 15 15 14 14 14 15 15 16 16 17 17 18 19 19 18 18 18
31 30 30 29 28 28 27 25 24 22 21 20 19 16 16 16 15 15 15 15 15 15 15 15 14 15 15 15 15 15 15 15 16 17 16 16 17 17 19 20 21 20 19 19
31 29 29 29 29 28 27 25 23 22 22 19 20 17 17 17 16 16 16 15 15 15 15 14 15 15 15 15 15 15 16 16 17 17 17 16 17 17 19 20 21 21 20 20
29 29 29 28 28 27 25 24 22 19 18 18 20 18 18 16 16 16 15 15 15 15 14 15 15 15 14 15 15 15 17 17 16 15 15 15 17 17 18 19 21 22 22 21
29 29 28 28 28 27 26 25 23 21 19 17 18 18 17 15 15 15 15 15 15 15 14 14 14 14 14 15 15 15 16 16 15 14 14 15 17 18 19 20 21 22 22 22
29 28 28 27 28 28 27 25 25 22 19 16 16 17 16 15 15 15 15 15 14 14 14 14 14 14 14 13 14 15 15 15 14 14 15 14 16 18 19 20 20 21 22 22
28 27 28 28 28 27 26 26 25 22 20 16 13 14 15 15 15 15 14 13 13 14 14 14 13 13 12 13 13 14 15 15 14 15 15 14 15 16 17 18 19 21 22 22
27 26 26 27 26 26 26 25 24 23 22 20 15 15 16 15 14 14 13 12 12 12 12 12 12 12 12 12 12 13 13 13 14 15 16 16 15 16 17 17 18 20 20 20
28 27 26 26 26 27 26 25 24 23 21 19 16 16 16 14 13 13 12 12 11 11 12 11 11 12 12 12 12 12 13 13 14 14 15 16 16 17 17 18 19 19 20 20
27 27 25 22 22 24 25 25 24 23 21 19 18 17 17 15 14 13 13 12 12 12 12 12 11 11 11 11 11 11 12 12 11 13 14 15 15 15 16 16 17 18 18 19
27 27 27 26 25 24 23 24 24 23 21 19 17 17 17 16 15 15 14 13 12 12 13 13 13 13 12 11 10 10 10 10 11 12 13 14 14 14 15 15 15 16 17 17
28 27 26 27 26 25 24 24 24 23 23 21 19 18 17 16 15 15 15 14 13 13 13 13 13 13 13 12 11 11 10 10 10 11 12 12 13 13 14 14 14 15 16 17
28 27 26 25 25 25 25 25 24 23 23 22 20 19 17 17 16 16 16 15 15 14 14 14 14 13 12 12 12 12 11 11 11 11 10 11 11 12 13 13 14 14 15 16
29 28 26 25 26 25 25 25 24 24 23 22 22 20 18 18 17 16 16 16 15 15 14 14 14 13 13 12 12 13 13 12 12 12 12 12 12 12 12 13 13 13 14 15
31 29 28 27 26 26 26 25 24 24 24 23 22 21 19 18 17 17 16 16 15 15 15 15 14 14 14 13 13 13 14 14 13 13 12 12 13 12 12 12 12 13 13 14
31 30 29 28 27 26 26 25 25 25 25 24 22 21 20 20 19 18 17 17 16 15 16 15 15 14 14 14 13 13 13 13 13 13 12 12 12 12 12 12 12 13 13 13
31 31 30 29 28 27 27 24 25 27 26 24 23 22 21 21 20 19 19 18 18 17 16 17 16 16 17 16 15 14 14 14 13 13 13 13 13 13 13 13 13 14 14 14
31 32 31 30 29 29 26 25 26 27 26 25 24 24 23 22 21 20 19 19 19 18 18 17 17 17 17 17 16 15 15 15 15 14 15 15 14 14 15 15 15 15 16 16
33 33 32 32 31 29 27 26 25 25 26 26 25 25 24 23 22 21 20 19 19 19 18 18 18 18 18 17 17 17 16 15 15 16 16 16 16 16 16 16 17 17 17 18
30 31 31 30 30 30 29 28 27 27 27 27 26 25 24 24 23 22 22 21 20 20 19 20 20 19 19 19 18 18 17 17 17 16 16 16 17 17 17 17 18 18 19 19
29 29 28 29 29 30 30 28 27 28 28 27 26 26 25 24 24 23 23 22 21 22 21 21 21 21 20 19 19 19 18 17 17 17 17 17 17 18 18 19 19 19 19 19
27 28 29 29 29 29 29 29 27 27 27 27 26 25 25 24 22 22 22 22 22 22 22 21 21 21 20 19 19 19 18 18 18 17 17 18 18 19 19 20 20 20 20 20
Wind_Direction
239 238 237 237 236 237 238 241 245 250 253 253 253 255 258 258 260 261 262 262 264 267 265 271 276 274 272 273 281 279 270 265 262 255 250 245 239 235 231 231 233 233 233 234
237 236 235 234 234 236 236 238 243 249 251 250 252 254 256 257 258 259 261 260 261 263 266 268 270 275 270 270 279 280 270 264 263 258 251 247 243 237 235 235 235 234 233 234
235 233 232 233 233 234 235 236 240 246 249 250 252 254 256 256 255 257 258 258 260 262 266 268 270 273 271 273 279 279 268 268 263 260 257 249 245 239 237 236 235 233 232 232
232 231 229 230 230 231 233 234 238 243 245 249 247 249 257 252 252 256 257 257 259 261 264 267 270 272 271 274 279 281 271 272 269 264 260 252 246 240 237 236 234 229 227 228
231 230 227 227 228 228 230 233 236 241 242 245 246 240 252 251 251 256 257 258 258 258 261 266 268 272 270 273 277 277 273 273 270 266 263 253 248 243 239 238 235 230 227 226
228 227 225 225 226 227 230 232 235 239 240 242 244 241 247 251 254 257 260 257 254 255 258 264 268 270 269 272 272 270 269 269 269 267 263 254 249 248 244 241 237 233 229 227
227 226 225 225 226 227 228 230 232 234 236 240 244 242 244 252 254 257 259 255 255 258 258 263 269 268 268 270 271 268 269 271 271 267 262 256 250 251 245 241 238 235 233 231
226 226 224 224 225 227 226 226 225 229 234 238 244 242 248 252 255 256 257 256 257 260 260 262 266 266 266 266 267 268 269 272 271 264 258 254 249 248 244 243 243 240 237 235
221 223 223 222 222 222 222 221 221 223 223 228 243 245 248 249 252 254 256 257 258 258 261 262 265 267 266 265 265 266 267 269 267 260 256 255 252 248 247 246 246 240 238 237
218 220 222 221 221 220 220 220 220 219 221 225 241 246 247 248 251 254 257 258 258 255 258 263 264 263 263 265 265 263 267 270 265 259 259 256 250 248 246 246 244 238 236 235
216 217 220 220 220 221 220 219 220 220 220 220 235 245 243 246 248 252 256 254 254 255 257 258 258 260 262 266 268 264 267 266 264 259 254 253 250 246 245 247 243 239 238 237
215 214 217 219 219 218 219 220 221 221 224 218 220 242 244 245 247 250 248 248 251 252 254 255 256 259 265 271 273 269 266 265 265 258 253 251 248 247 248 247 243 241 238 237
213 213 212 216 218 217 218 218 218 219 223 225 224 237 243 243 244 245 244 245 246 247 249 251 256 261 267 271 276 272 267 268 265 256 253 252 251 251 251 249 246 242 240 238
213 213 210 213 220 221 219 218 218 219 221 228 228 232 240 239 240 242 243 245 246 247 249 251 256 262 266 270 274 274 269 266 262 256 253 253 251 250 246 246 245 243 242 240
212 212 211 210 214 218 219 218 219 220 221 226 232 233 236 238 238 239 241 245 246 247 250 251 256 261 263 266 270 272 270 264 263 262 258 253 252 250 247 247 244 243 244 242
212 212 213 214 214 215 217 218 219 221 223 224 228 233 235 237 236 238 240 244 245 249 252 253 260 263 263 261 264 268 268 266 264 265 261 257 254 251 250 248 247 244 243 243
212 213 213 213 215 217 219 219 221 222 225 225 228 232 234 234 236 239 241 244 246 250 254 256 262 262 262 260 262 265 269 270 268 268 262 256 255 253 253 253 251 248 248 246
214 214 215 214 216 218 221 221 220 222 224 225 229 232 234 235 236 238 239 243 245 249 250 253 259 262 263 264 266 268 266 267 268 269 263 258 258 257 257 254 250 250 250 247
216 216 216 217 220 223 224 221 220 223 225 226 229 231 233 235 236 235 238 243 247 250 252 254 258 261 262 262 265 268 264 264 264 263 263 261 257 256 255 253 251 254 253 252
216 217 218 219 220 224 226 224 223 224 228 228 230 230 231 233 235 236 240 245 249 253 253 255 256 259 259 261 263 265 267 264 261 260 261 262 262 260 259 255 255 255 255 256
215 217 219 220 222 225 225 222 223 225 227 226 229 230 231 232 235 239 243 247 250 253 254 254 254 258 260 261 263 265 267 262 260 259 261 263 265 265 263 261 258 258 258 262
217 219 219 220 223 227 224 223 223 225 227 228 228 229 230 232 236 240 243 246 248 250 252 253 255 258 260 259 260 263 265 262 261 262 262 261 259 261 262 262 263 264 265 267
218 219 221 223 225 226 225 225 223 225 226 226 226 228 229 232 235 240 243 244 246 246 249 252 255 257 256 257 260 261 262 263 262 261 260 259 259 260 262 262 263 264 267 270
217 219 223 224 224 226 227 226 224 225 225 225 226 228 230 233 237 241 242 244 245 245 247 251 254 256 256 256 257 259 259 260 261 262 263 261 262 262 262 263 264 266 268 270
216 217 219 223 224 224 226 225 224 222 222 224 227 228 230 233 237 239 240 243 245 247 250 252 255 256 257 256 258 257 256 258 261 263 264 264 264 263 263 263 264 266 268 269
214 214 217 221 222 221 222 223 222 221 220 222 225 227 230 232 235 238 241 243 245 248 250 253 255 257 255 256 258 256 256 257 259 261 262 263 264 264 264 264 266 268 270 273
Height
5846 5850 5853 5856 5859 5862 5864 5867 5868 5868 5870 5872 5874 5875 5876 5877 5878 5879 5879 5880 5880 5880 5879 5879 5878 5878 5878 5878 5878 5878 5878 5878 5878 5878 5879 5879 5880 5882 5884 5885 5887 5889 5890 5892
5840 5844 5847 5849 5853 5856 5859 5862 5863 5864 5866 5868 5870 5871 5872 5873 5874 5875 5876 5876 5877 5876 5876 5876 5876 5876 5875 5875 5875 5875 5874 5874 5875 5875 5876 5876 5877 5879 5881 5882 5884 5886 5887 5889
5833 5838 5840 5844 5847 5851 5854 5857 5858 5860 5862 5864 5867 5868 5869 5870 5871 5872 5872 5873 5873 5873 5873 5873 5873 5873 5872 5872 5872 5871 5871 5871 5871 5871 5872 5873 5874 5876 5878 5879 5881 5882 5884 5886
5825 5830 5834 5838 5842 5845 5849 5851 5853 5856 5858 5861 5863 5866 5865 5866 5867 5868 5869 5869 5869 5870 5870 5870 5870 5869 5869 5869 5868 5868 5867 5867 5867 5867 5868 5869 5871 5872 5874 5875 5877 5879 5881 5883
5820 5824 5828 5832 5837 5840 5843 5846 5849 5851 5854 5857 5859 5862 5864 5862 5864 5865 5865 5865 5866 5866 5866 5866 5866 5866 5866 5865 5865 5864 5864 5864 5863 5863 5864 5865 5867 5868 5869 5871 5873 5875 5877 5879
5814 5818 5822 5827 5831 5834 5837 5842 5844 5847 5850 5853 5855 5858 5860 5859 5860 5861 5861 5861 5862 5862 5862 5862 5862 5862 5862 5861 5861 5861 5860 5860 5860 5860 5860 5861 5863 5864 5865 5867 5870 5871 5873 5876
5808 5812 5817 5821 5825 5829 5833 5838 5841 5843 5846 5849 5850 5853 5856 5855 5856 5856 5857 5857 5858 5859 5859 5859 5859 5858 5858 5857 5857 5857 5856 5856 5856 5855 5856 5857 5858 5859 5861 5863 5865 5867 5869 5871
5803 5808 5811 5816 5820 5824 5828 5834 5839 5842 5844 5846 5845 5848 5850 5851 5851 5852 5853 5854 5854 5855 5855 5855 5854 5854 5854 5853 5853 5852 5852 5852 5851 5851 5852 5853 5854 5855 5857 5859 5860 5862 5864 5867
5799 5803 5806 5811 5815 5819 5823 5827 5833 5837 5840 5843 5843 5844 5845 5846 5847 5848 5849 5850 5850 5850 5850 5850 5850 5850 5850 5849 5849 5848 5848 5848 5848 5848 5848 5849 5850 5851 5853 5854 5856 5857 5860 5862
5793 5798 5801 5805 5810 5814 5819 5823 5827 5831 5835 5839 5840 5840 5842 5842 5843 5844 5844 5845 5846 5846 5846 5846 5846 5846 5846 5845 5844 5844 5844 5844 5844 5844 5844 5845 5846 5847 5848 5850 5851 5853 5855 5858
5788 5794 5797 5801 5805 5810 5814 5818 5822 5827 5831 5836 5838 5840 5838 5838 5839 5840 5840 5841 5842 5842 5842 5842 5842 5842 5842 5841 5841 5840 5840 5840 5840 5840 5840 5841 5842 5843 5844 5846 5847 5849 5851 5853
5783 5789 5793 5797 5801 5805 5809 5814 5818 5823 5826 5829 5834 5838 5833 5834 5835 5836 5837 5837 5838 5838 5838 5838 5838 5838 5838 5838 5837 5836 5836 5836 5836 5836 5837 5837 5838 5839 5840 5841 5843 5844 5846 5848
5779 5784 5789 5793 5798 5801 5804 5809 5813 5818 5821 5825 5830 5833 5829 5830 5832 5832 5833 5834 5834 5834 5835 5835 5835 5835 5835 5834 5834 5833 5833 5832 5832 5832 5833 5833 5834 5835 5836 5837 5838 5840 5842 5843
5775 5780 5787 5792 5794 5797 5801 5805 5809 5813 5817 5821 5824 5827 5826 5827 5828 5829 5830 5831 5831 5832 5832 5832 5832 5832 5832 5831 5831 5830 5830 5829 5829 5829 5829 5829 5830 5832 5832 5833 5834 5836 5837 5839
5770 5776 5781 5786 5789 5793 5797 5801 5804 5808 5813 5817 5820 5821 5822 5823 5825 5826 5827 5827 5828 5828 5828 5829 5829 5829 5829 5828 5828 5827 5827 5826 5826 5826 5826 5826 5827 5828 5829 5830 5830 5832 5833 5835
5766 5771 5776 5781 5785 5789 5793 5796 5800 5804 5808 5811 5814 5816 5818 5819 5820 5822 5823 5824 5824 5825 5825 5825 5825 5825 5825 5825 5825 5825 5825 5824 5824 5824 5823 5824 5824 5825 5825 5826 5827 5828 5829 5830
5762 5767 5772 5777 5780 5784 5788 5792 5796 5800 5803 5807 5810 5812 5813 5815 5816 5817 5819 5820 5820 5821 5821 5822 5822 5822 5822 5822 5822 5822 5822 5822 5822 5821 5821 5821 5821 5822 5822 5823 5824 5825 5825 5826
5757 5762 5767 5772 5776 5780 5786 5787 5791 5795 5798 5801 5804 5807 5809 5810 5812 5813 5815 5816 5816 5817 5818 5818 5818 5819 5819 5819 5819 5819 5819 5819 5819 5819 5819 5819 5819 5820 5820 5821 5821 5822 5822 5823
5752 5757 5762 5767 5771 5775 5778 5782 5786 5790 5793 5796 5799 5802 5804 5806 5807 5809 5810 5811 5812 5813 5814 5814 5815 5815 5815 5816 5816 5816 5816 5816 5816 5816 5817 5817 5817 5817 5818 5818 5818 5819 5819 5819
5746 5752 5757 5761 5766 5770 5774 5777 5781 5785 5788 5791 5794 5796 5799 5801 5803 5805 5806 5807 5808 5809 5810 5810 5811 5811 5812 5812 5812 5813 5813 5813 5813 5813 5814 5814 5814 5815 5815 5815 5816 5816 5816 5816
5740 5745 5750 5755 5759 5763 5766 5771 5775 5780 5782 5785 5788 5791 5793 5796 5798 5800 5801 5802 5804 5804 5805 5806 5807 5807 5808 5808 5808 5809 5809 5809 5810 5810 5811 5811 5811 5812 5812 5812 5812 5813 5813 5813
5734 5739 5743 5748 5753 5758 5761 5765 5769 5772 5776 5779 5782 5785 5788 5790 5792 5794 5796 5797 5799 5800 5801 5801 5802 5803 5803 5804 5804 5805 5805 5806 5806 5807 5807 5808 5808 5808 5809 5809 5809 5809 5809 5809
5727 5732 5737 5742 5747 5750 5754 5758 5762 5766 5769 5772 5776 5779 5782 5785 5787 5789 5791 5792 5794 5795 5796 5796 5797 5797 5798 5799 5800 5801 5801 5802 5802 5802 5803 5803 5804 5804 5804 5805 5805 5805 5805 5805
5720 5725 5730 5735 5739 5743 5747 5751 5755 5759 5763 5766 5770 5773 5776 5779 5781 5783 5785 5787 5788 5790 5791 5792 5792 5793 5794 5794 5795 5796 5797 5797 5798 5798 5798 5798 5799 5799 5800 5800 5800 5801 5800 5800
5713 5719 5723 5728 5732 5737 5741 5745 5749 5753 5756 5760 5764 5767 5770 5773 5775 5777 5779 5781 5783 5784 5785 5786 5787 5788 5789 5790 5791 5791 5792 5793 5793 5794 5794 5794 5794 5795 5795 5795 5795 5795 5795 5795
5707 5712 5717 5721 5726 5730 5734 5738 5742 5746 5750 5754 5757 5761 5764 5767 5769 5771 5773 5775 5777 5778 5780 5781 5782 5783 5784 5785 5786 5786 5787 5788 5788 5789 5789 5789 5790 5790 5790 5790 5790 5789 5789 5789